Weather Roundup
Issued by NWS Chicago, IL

Home | Current Version | Previous Version | Text Only | Print | Product List | Glossary On
Versions: 1 2 3 4 5 6 7 8 9 10 11 12 13 14 15 16 17 18 19 20 21 22 23 24 25 26 27 28 29 30 31 32 33 34 35 36 37 38 39 40 41 42 43 44 45 46 47 48 49 50
000
NZUS59 KLOT 280208
HRRLOT

CHICAGO AREA WEATHER ROUNDUP
NATIONAL WEATHER SERVICE CHICAGO/ROMEOVILLE IL
900 PM CDT WED JUL 27 2016

NOTE: "FAIR" INDICATES FEW OR NO CLOUDS BELOW 12,000 FEET WITH NO
SIGNIFICANT WEATHER AND/OR OBSTRUCTIONS TO VISIBILITY.

* THESE STATIONS ARE NOT UNDER NWS QUALITY CONTROL. THEY ALSO MAY NOT
  REPORT WEATHER SUCH AS PRECIPITATION OR FOG.

ILZ005-006-012>014-019>023-280300-
NORTHEAST ILLINOIS

CITY           SKY/WX    TMP DP  RH WIND       PRES   REMARKS
OHARE          CLOUDY    80  62  54 SE8       29.94R HX  81
MIDWAY         MOCLDY    82  62  50 E7        29.94R HX  83
AURORA         CLEAR     77  69  76 CALM      29.95R
LANSING*       MOCLDY    78  67  68 W3        29.95R HX  80
JOLIET*        CLEAR     74  69  85 CALM      29.94R
WAUKEGAN       MOCLDY    75  72  90 E7        29.94R
DUPAGE AIRPORT PTCLDY    79  66  64 SW5       29.94R HX  81
WHEELING       CLOUDY    80  63  55 CALM      29.95R HX  81
KANKAKEE*      CLEAR     76  70  82 CALM      29.95R
MORRIS*        CLEAR     74  71  90 CALM      29.94R
LEWIS AIRPORT* CLEAR     74  66  77 CALM      29.95R
NORTHERLY ISL    N/A     76  69  79 S1          N/A
$$

WIZ051-052-058>065-066-070>072-280300-
SOUTHEAST WISCONSIN

CITY           SKY/WX    TMP DP  RH WIND       PRES   REMARKS
MILWAUKEE      MOCLDY    73  68  84 E3        29.95R
KENOSHA*       MOCLDY    72  69  90 E5        29.95S
RACINE*        PTCLDY    72  67  84 CALM      29.96S
BURLINGTON     CLOUDY    72  67  84 E3        29.96R
WAUKESHA       CLEAR     72  63  73 E6        29.96S
$$

INZ001>003-010>013-019-020-280300-
NORTHWEST INDIANA

CITY           SKY/WX    TMP DP  RH WIND       PRES   REMARKS
GARY*          PTCLDY    75  72  88 CALM      29.93R
MICHIGAN CITY* NOT AVBL
RENSSELAER*    NOT AVBL
VALPARAISO     CLEAR     75  68  78 CALM      29.95R
$$

LMZ740>746-280300-
SOUTHERN LAKE MICHIGAN

STATION/POSITION TIME  SKY/WX   TEMP WIND        PRES    VSBY
                                AIR  DIR/SP/G
                 (UTC)          (F)  (DEG/KT/KT) (MB)    (MI)
HARRISON CRIB    0100            79  100/ 10/ 11   N/A
BURNHAM HARBOR   0200            76  170/  3/  5   N/A
CALUMET HARBOR   0100                110/  5/  7   N/A
BURNS HARBOR     0100            82  110/  9/ 15 1013.5S
MICHIGAN CITY    0100            81  100/  4/  6   N/A
$$

ABBREVIATIONS USED IN REMARKS
   TC - TEMPERATURE IN CELSIUS
  WCI - WIND CHILL INDEX
   HX - HEAT INDEX
  VSB - VISIBILITY
$$




USA.gov is the U.S. government's official web portal to all federal, state and local government web resources and services.